This demonstration page uses our WeatherBlox Daily Observations layout. Learn more.

Left ArrowRight Arrow

39.51506, -84.39828

Hourly Observations for March 18, 2017

Temp ( °F °C ) Dew Point ( °F °C ) Humidity (%) Winds ( mph kmh ) Pressure ( in mb ) Visibility ( mi km ) Precip ( " mm )
12:15 am 00:15 Cloudy with Haze 40 4.7 37 2.5 86 86 Calm 30.06 1018 1 1 0.00 0.00
12:35 am 00:35 Cloudy with Haze 40 4.7 37 2.5 86 86 Calm 30.06 1018 1 1 0.00 0.00
12:55 am 00:55 Cloudy with Mist and Fog 41 4.9 37 2.5 85 85 Calm 30.06 1018 1 1 0.00 0.00
1:15 am 01:15 Cloudy with Haze 42 5.4 37 3 85 85 Calm 30.06 1018 1 1 0.00 0.00
1:35 am 01:35 Cloudy with Haze 42 5.5 37 3 84 84 SW 3 6 30.06 1018 1 1 0.00 0.00
1:55 am 01:55 Cloudy with Haze 42 5.5 37 3 84 84 Calm 30.09 1019 1 1 0.00 0.00
2:15 am 02:15 Cloudy with Mist and Fog 41 5.1 37 2.7 85 85 Calm 30.06 1018 1 1 0.00 0.00
2:35 am 02:35 Cloudy with Haze 42 5.5 37 3 84 84 Calm 30.09 1019 1 2 0.00 0.00
2:55 am 02:55 Cloudy with Mist and Fog 42 5.6 38 3.2 85 85 SSW 6 9 30.09 1019 1 2 0.00 0.00
3:15 am 03:15 Cloudy with Mist and Fog 42 5.8 38 3.4 85 85 SW 6 9 30.09 1019 1 2 0.00 0.00
3:35 am 03:35 Cloudy with Haze 42 5.8 38 3.5 85 85 SSW 5 7 30.06 1018 1 2 0.00 0.00
3:55 am 03:55 Cloudy with Mist and Fog 43 6.1 39 3.7 85 85 SW 5 7 30.06 1018 2 3 0.00 0.00
4:15 am 04:15 Cloudy with Mist and Fog 43 6.1 39 3.7 85 85 SSW 7 11 30.06 1018 2 3 0.00 0.00
4:35 am 04:35 Cloudy with Mist and Fog 43 6.1 39 3.7 85 85 SW 3 6 30.06 1018 2 3 0.00 0.00
4:55 am 04:55 Cloudy with Mist and Fog 43 6.1 39 3.7 85 85 SW 6 9 30.06 1018 2 3 0.00 0.00
5:15 am 05:15 Cloudy with Mist and Fog 44 6.8 40 4.5 85 85 SSW 8 13 30.06 1018 3 5 0.00 0.00
5:35 am 05:35 Mostly Cloudy with Mist and Fog 43 6.1 39 3.7 85 85 SW 5 7 30.06 1018 3 5 0.00 0.00
5:55 am 05:55 Partly Cloudy with Mist and Fog 43 6.1 38 3.6 84 84 Calm 30.03 1017 3 5 0.00 0.00
6:15 am 06:15 Mostly Cloudy with Mist and Fog 41 4.9 37 2.6 85 85 Calm 30.03 1017 1 2 0.00 0.00
6:35 am 06:35 Cloudy with Haze 42 5.4 37 3 85 85 Calm 30.03 1017 1 1 0.00 0.00
6:55 am 06:55 Cloudy with Fog 41 4.8 37 2.5 85 85 Calm 30.03 1017 1 1 0.00 0.00
7:15 am 07:15 Cloudy with Mist and Fog 41 5 37 2.7 85 85 W 3 6 30.03 1017 2 2 0.00 0.00
7:35 am 07:35 Cloudy 43 5.9 38 3.5 85 85 W 7 11 30.03 1017 7 11 0.00 0.00
7:55 am 07:55 Cloudy 42 5.7 37 2.9 82 82 WNW 10 17 30.06 1018 10 16 0.00 0.00
8:15 am 08:15 Cloudy 42 5.5 35 1.9 78 78 WNW 9 15 30.06 1018 10 16 0.00 0.00
8:35 am 08:35 Cloudy 42 5.5 34 0.9 73 73 WNW 10 17 30.06 1018 10 16 0.00 0.00
8:55 am 08:55 Cloudy 42 5.5 33 0.6 71 71 WNW 10 17 30.06 1018 10 16 0.00 0.00
9:15 am 09:15 Cloudy 42 5.5 33 0.7 72 72 W 12 19 30.09 1019 10 16 0.00 0.00
9:35 am 09:35 Cloudy 41 4.8 30 -0.9 67 67 W 12 19 30.09 1019 10 16 0.00 0.00
9:55 am 09:55 Cloudy 40 4.7 30 -1.1 66 66 W 16 26 30.09 1019 10 16 0.00 0.00
10:15 am 10:15 Cloudy 42 5.5 31 -0.7 65 65 W 16 26 30.09 1019 10 16 0.00 0.00
10:35 am 10:35 Cloudy 42 5.4 31 -0.7 65 65 W 16 26 30.09 1019 10 16 0.00 0.00
10:55 am 10:55 Cloudy 42 5.5 30 -1 63 63 W 17 28 30.12 1020 10 16 0.00 0.00
11:15 am 11:15 Cloudy 40 4.7 29 -1.8 63 63 W 13 20 30.12 1020 10 16 0.00 0.00
11:35 am 11:35 Cloudy 40 4.7 29 -1.6 64 64 W 14 22 30.12 1020 10 16 0.00 0.00
11:55 am 11:55 Cloudy 39 4 30 -1 70 70 W 14 22 30.15 1021 7 11 0.00 0.00
12:15 pm 12:15 Cloudy 40 4.5 32 0 73 73 W 10 17 30.15 1021 10 16 0.00 0.00
12:35 pm 12:35 Cloudy 40 4.3 31 -0.3 72 72 W 15 24 30.15 1021 10 16 0.00 0.00
12:55 pm 12:55 Cloudy 40 4.7 32 0 72 72 W 13 20 30.12 1020 10 16 0.00 0.00
1:15 pm 13:15 Cloudy 40 4.7 32 0 72 72 W 9 15 30.12 1020 10 16 0.00 0.00
1:35 pm 13:35 Cloudy 40 4.7 32 0 72 72 W 10 17 30.18 1022 10 16 0.00 0.00
1:55 pm 13:55 Cloudy 40 4.7 32 0 72 72 WNW 10 17 30.18 1022 10 16 0.00 0.00
2:15 pm 14:15 Cloudy 41 4.9 32 0 71 71 W 12 19 30.18 1022 10 16 0.00 0.00
2:35 pm 14:35 Cloudy 42 5.3 32 0.2 70 70 W 12 19 30.15 1021 10 16 0.00 0.00
2:55 pm 14:55 Cloudy 41 4.9 32 0 71 71 W 12 19 30.18 1022 10 16 0.00 0.00
3:15 pm 15:15 Cloudy 41 5 32 0 70 70 WNW 10 17 30.15 1021 10 16 0.00 0.00
3:35 pm 15:35 Cloudy 42 5.5 33 0.3 69 69 W 12 19 30.15 1021 10 16 0.00 0.00
3:55 pm 15:55 Cloudy 42 5.5 32 0.2 69 69 W 8 13 30.15 1021 10 16 0.00 0.00
4:15 pm 16:15 Cloudy 42 5.5 32 -0.1 68 68 WNW 15 24 30.15 1021 10 16 0.00 0.00
4:35 pm 16:35 Cloudy 42 5.5 33 0.3 69 69 WNW 10 17 30.18 1022 7 11 0.00 0.00
4:55 pm 16:55 Cloudy 42 5.5 32 0 68 68 W 12 19 30.18 1022 10 16 0.00 0.00
5:15 pm 17:15 Cloudy 42 5.5 32 0 68 68 W 9 15 30.18 1022 10 16 0.00 0.00
5:35 pm 17:35 Cloudy 41 5.1 32 0 70 70 W 10 17 30.21 1023 10 16 0.00 0.00
5:55 pm 17:55 Cloudy 42 5.5 32 -0.1 68 68 W 9 15 30.21 1023 10 16 0.00 0.00
6:15 pm 18:15 Cloudy 42 5.5 31 -0.3 67 67 W 7 11 30.21 1023 10 16 0.00 0.00
6:35 pm 18:35 Cloudy 42 5.5 32 -0.2 67 67 W 10 17 30.21 1023 10 16 0.00 0.00
6:55 pm 18:55 Cloudy 42 5.5 31 -0.5 66 66 W 8 13 30.21 1023 10 16 0.00 0.00
7:15 pm 19:15 Cloudy 41 5 31 -0.6 67 67 W 9 15 30.27 1025 10 16 0.00 0.00
7:35 pm 19:35 Cloudy 41 5 31 -0.7 67 67 W 8 13 30.27 1025 10 16 0.00 0.00
7:55 pm 19:55 Cloudy 41 4.9 30 -1 66 66 W 6 9 30.27 1025 10 16 0.00 0.00
8:15 pm 20:15 Cloudy 40 4.7 30 -1 67 67 W 6 9 30.27 1025 10 16 0.00 0.00
8:35 pm 20:35 Cloudy 40 4.7 30 -1.2 66 66 W 6 9 30.27 1025 10 16 0.00 0.00
8:55 pm 20:55 Cloudy 40 4.7 30 -1.2 66 66 WNW 6 9 30.27 1025 10 16 0.00 0.00
9:15 pm 21:15 Cloudy 40 4.7 30 -1 67 67 WNW 7 11 30.27 1025 10 16 0.00 0.00
9:35 pm 21:35 Cloudy 40 4.7 30 -1.3 65 65 WNW 8 13 30.30 1026 10 16 0.00 0.00
9:55 pm 21:55 Cloudy 40 4.7 30 -1.3 65 65 WNW 10 17 30.30 1026 10 16 0.00 0.00
10:15 pm 22:15 Cloudy 40 4.7 30 -1.2 66 66 NW 6 9 30.30 1026 10 16 0.00 0.00
10:35 pm 22:35 Cloudy 40 4.7 29 -1.4 65 65 NW 9 15 30.30 1026 10 16 0.00 0.00
10:55 pm 22:55 Cloudy 40 4.7 29 -1.5 64 64 NW 8 13 30.30 1026 10 16 0.00 0.00
11:15 pm 23:15 Cloudy 40 4.7 29 -1.4 65 65 WNW 3 6 30.30 1026 10 16 0.00 0.00
11:35 pm 23:35 Cloudy 40 4.4 29 -1.5 66 66 NW 3 6 30.30 1026 10 16 0.00 0.00
11:55 pm 23:55 Cloudy 39 4 29 -1.8 66 66 NNW 5 7 30.30 1026 10 16 0.00 0.00

Powered by AerisWeather